Home   Weather   Berkeley   Past weeks

Flag for USA Past Weather in Berkeley, California, USA — Yesterday and Last 2 Weeks

Now
67 °F

Partly sunny.


Feels Like: 67 °F
Forecast: 54 / 70 °F
Wind: 14 mph from Southwest

Location: Metro Oakland International Airport

Current Time: Apr 27, 2017 at 3:38:26 pm

Latest Report: Apr 27, 2017 at 2:53 pm


Visibility: 10 mi

Pressure: 30.03 "Hg

Humidity: 57%

Dew Point: 51 °F

Location of BerkeleyLocation

Past Weather in Berkeley — Graph

°F

Berkeley Temperature Yesterday

Maximum temperature yesterday: 66 °F (at 2:53 pm)
Minimum temperature yesterday: 57 °F (at 11:53 pm)
Average temperature yesterday: 61 °F

High & Low Weather Summary for the Past Weeks

 TemperatureHumidityPressure
High74 °F (Apr 21, 3:53 pm)100% (Apr 17, 7:29 am)30.32 "Hg (Apr 17, 7:29 am)
Low46 °F (Apr 14, 5:53 am)38% (Apr 14, 1:53 pm)29.89 "Hg (Apr 12, 11:53 pm)
Average59 °F75%30.08 "Hg
* Reported Apr 12 1:53 pm — Apr 27 1:53 pm, Berkeley, Weather by CustomWeather, © 2017

Note: Actual official high and low records may vary slightly from our data, if they occured in-between our weather recording intervals... More about our weather records

Advertising

Berkeley Weather History for the Previous 24 Hours

Scroll right to see more
 ConditionsComfort  
Time TempWeatherWind HumidityBarometerVisibility
1:53 pm
Thu, Apr 27
68 °FPassing clouds.13 mph53%30.04 "Hg10 mi
12:53 pm66 °FPassing clouds.13 mph50%30.07 "Hg10 mi
11:53 am64 °FScattered clouds.8 mph58%30.08 "Hg10 mi
10:53 am63 °FPartly sunny.8 mph58%30.06 "Hg10 mi
9:53 am61 °FPartly sunny.7 mph65%30.06 "Hg10 mi
8:53 am60 °FPartly sunny.6 mph72%30.07 "Hg10 mi
7:53 am57 °FPartly sunny.No wind87%30.05 "Hg10 mi
6:53 am52 °FScattered clouds.No wind93%30.03 "Hg10 mi
5:53 am52 °FPassing clouds.3 mph93%30.03 "Hg10 mi
5:18 am53 °FPassing clouds.No wind89%30.03 "Hg10 mi
4:53 am52 °FPassing clouds.3 mph93%30.03 "Hg10 mi
3:53 am55 °FPassing clouds.5 mph90%30.04 "Hg10 mi
2:59 am56 °FPassing clouds.6 mph87%30.04 "Hg10 mi
2:38 am56 °FPassing clouds.10 mph90%30.04 "Hg10 mi
2:12 am56 °FPassing clouds.10 mph87%30.04 "Hg10 mi
1:53 am56 °FPassing clouds.10 mph87%30.04 "Hg10 mi
12:53 am56 °FClear.15 mph87%30.04 "Hg10 mi
12:21 am57 °FPassing clouds.17 mph87%30.04 "Hg10 mi
11:53 pm
Wed, Apr 26
57 °FPassing clouds.20 mph87%30.04 "Hg10 mi
10:53 pm60 °FPassing clouds.24 mph80%30.03 "Hg10 mi
9:53 pm59 °FPassing clouds.17 mph84%30.05 "Hg10 mi
8:53 pm60 °FPassing clouds.14 mph83%30.03 "Hg10 mi
8:37 pm60 °FPartly cloudy.23 mph83%30.05 "Hg10 mi
7:53 pm60 °FMostly cloudy.20 mph83%30.03 "Hg10 mi
7:26 pm60 °FPartly sunny.18 mph86%30.04 "Hg10 mi
5:53 pm62 °FCloudy.17 mph80%30.04 "Hg10 mi
4:53 pm62 °FMore clouds than sun.14 mph83%30.06 "Hg10 mi
3:53 pm64 °FMostly cloudy.14 mph81%30.06 "Hg10 mi
Weather by CustomWeather, © 2017

See weather overviewHow to use our weather pages